Zurück zum Katalog

YZ-1 R/B

AktivMEO
NORAD 44795·ROCKET BODY·🇨🇳 China

Gestartet Nov 23, 2019 von Xichang Satellite Launch Center

Loading…

Nächste Überflüge (nächste 24 Stunden)

TLE

AktuellSource: Space-Track

Epoche: Sep 11, 2026, 19:49 UTC

1 44795U 19078C   26254.82584000 -.00000056  00000-0  00000-0 0  9992
2 44795  54.1342 305.2010 0074990  53.8253 306.9380  1.78050188 44258

Verfolge YZ-1 R/B in Echtzeit mit AllMySat

Download on the App Store